COSMOS 1275 DEB, 14556

Orbit data source: Space-Track

COSMOS 1275 DEB, 14556 is space debris in LEO originally from a launch on Thu, 04 Jun 1981 UTC launched from the Plesetsk Missile And Space Complex (PKMTR). Debris objects in space refer to the collection of defunct objects orbiting the Earth. Examples of debris include non-operational satellites, rocket bodies, and fragments generated from explosions, collisions, or faulty payload assembly.

Loading next visibility...
Identifier
14556, 1981-053JL
Orbit
LEO
Country
Flag of CISCIS
Related business
Manufacturer
Unknown
Mission
Spacecraft
Bus & Motor
Unknown
Mass
Unknown
Launch date (UTC)
1981-06-04 (45 years ago)
Launch vehicle
Unknown
Launch site
Plesetsk Missile And Space Complex (PKMTR)
Object type
Payload
Rocket body
Debris
Shape & HBR
Unknown shape, 0.1 m
Radar Cross Section
Small (<0.1 m²)

Expand to show TLE details & history
Last TLE update: 15 hours ago

TLE from 15 hours ago
0 COSMOS 1275 DEB
1 14556U 81053JL  26037.06751214  .00001224  00000-0  12904-2 0  9999
2 14556  83.0111  73.2183 0123665 318.5576  69.1910 13.70724829 94146
Epoch: 2026-02-06T01:37Z
TLE epoch observation values (Epoch: 2026-02-06T01:37:13.048Z)
Latitude
28.88938°
Longitude
-83.43841°
Altitude
969.126 km
Speed
7.385 km/s
True Right ascension
05h 08m 18s
True Declination
28° 44' 54"
Sunlit
Object was in full shadow at epoch
Visualization orbit readout
Latitude
Unknown
Longitude
Unknown
Altitude
Unknown
Speed
Unknown
Apparent Right ascension
Unknown
Apparent Declination
Unknown
Sunlit
N/A
Visualization observer readout
Local Sidereal Time
18:54:48
Azimuth
Unknown
Elevation
Unknown
Doppler factor
Unknown
Orbital elements
Apogee altitude
1,085.29 km
Perigee altitude
902.952 km
Semi-major axis
7,372.258 km
Eccentricity
0.01237
Inclination
83.0111°
RAAN
73.2183°
Arg. of periapsis
318.5576°
True anomaly
70.52285°
Mean anomaly
69.191°
Eccentric anomaly
69.85621°
Mean motion
3.4288 °/min
Orbital period
104.99 mins
BSTAR
0.0012904
Loading maneuver chart data...
Computing Atmospheric mass density...
Loading historical data...
Loading historical data...
Loading historical data...
Loading historical data...
Loading historical data...
Loading historical data...
Loading historical data...

Documentation

Showing up to 5 results
|